Location: Dominguez Junction
(33.8634°N, 118.2179°W)
Time: 07:34:05
(UTC+00:00)

Meteor 2-5 Rocket - Pass Details

Date: 29 October 2020
Orbit: 833 x 911 km, 81.2° (Epoch: 28 November)

Event Time Altitude Azimuth Distance (km) Brightness Sun altitude
Rises 12:43:00 0° 207° (SSW) 3,410 6.6 -18.6°
Reaches altitude 10° 12:45:33 10° 215° (SW) 2,489 5.8 -18.1°
Maximum altitude 12:50:48 39° 283° (WNW) 1,292 4.2 -17.0°
Drops below altitude 10° 12:56:11 10° 351° (N) 2,552 6.0 -15.9°
Sets 12:58:50 0° 360° (N) 3,507 6.8 -15.3°
